| time (UTC) | temp F | wind direction | speed MPH | gust MPH | rain 1hr in | rain 24hr in | rain mn in | humidity % | barometer mb |
| 20260504231550 | 72 | 186 | 2.0 | 10.0 | 0.00 | 0.00 | 0.00 | 35 | 1014.2 |
| 20260504230048 | 72 | 159 | 1.0 | 14.0 | 0.00 | 0.00 | 0.00 | 36 | 1014.1 |
| 20260504224553 | 73 | 175 | 4.0 | 11.0 | 0.00 | 0.00 | 0.00 | 36 | 1014.1 |
| 20260504223053 | 73 | 186 | 4.0 | 13.0 | 0.00 | 0.00 | 0.00 | 36 | 1014.1 |
| 20260504221549 | 74 | 167 | 4.0 | 13.0 | 0.00 | 0.00 | 0.00 | 36 | 1014.1 |
| 20260504220056 | 74 | 203 | 5.0 | 11.0 | 0.00 | 0.00 | 0.00 | 35 | 1014.1 |
| 20260504214550 | 74 | 175 | 5.0 | 10.0 | 0.00 | 0.00 | 0.00 | 35 | 1014.1 |
| 20260504213108 | 75 | 163 | 4.0 | 11.0 | 0.00 | 0.00 | 0.00 | 33 | 1014.1 |
| 20260504211551 | 75 | 193 | 3.0 | 11.0 | 0.00 | 0.00 | 0.00 | 33 | 1014.1 |
| 20260504210052 | 76 | 142 | 5.0 | 10.0 | 0.00 | 0.00 | 0.00 | 33 | 1014.2 |
| 20260504204600 | 76 | 136 | 5.0 | 9.0 | 0.00 | 0.00 | 0.00 | 33 | 1014.2 |
| 20260504203049 | 76 | 211 | 4.0 | 10.0 | 0.00 | 0.00 | 0.00 | 33 | 1014.4 |
| 20260504201551 | 76 | 180 | 4.0 | 13.0 | 0.00 | 0.00 | 0.00 | 34 | 1014.4 |
| 20260504200049 | 76 | 178 | 5.0 | 11.0 | 0.00 | 0.00 | 0.00 | 32 | 1014.7 |
| 20260504194551 | 76 | 161 | 4.0 | 9.0 | 0.00 | 0.00 | 0.00 | 34 | 1014.9 |
| 20260504193059 | 76 | 194 | 2.0 | 9.0 | 0.00 | 0.00 | 0.00 | 32 | 1015.0 |
| 20260504191553 | 75 | 182 | 5.0 | 10.0 | 0.00 | 0.00 | 0.00 | 34 | 1015.1 |
| 20260504190054 | 75 | 250 | 2.0 | 12.0 | 0.00 | 0.00 | 0.00 | 35 | 1015.3 |
| 20260504184549 | 75 | 180 | 1.0 | 8.0 | 0.00 | 0.00 | 0.00 | 35 | 1015.6 |
| 20260504183059 | 75 | 181 | 4.0 | 10.0 | 0.00 | 0.00 | 0.00 | 35 | 1015.7 |
| 20260504181555 | 76 | 63 | 2.0 | 12.0 | 0.00 | 0.00 | 0.00 | 36 | 1015.6 |
| 20260504180127 | 75 | 125 | 4.0 | 12.0 | 0.00 | 0.00 | 0.00 | 36 | 1015.9 |
| 20260504174548 | 76 | 319 | 2.0 | 9.0 | 0.00 | 0.00 | 0.00 | 33 | 1016.0 |
| 20260504173049 | 73 | 52 | 1.0 | 8.0 | 0.00 | 0.00 | 0.00 | 35 | 1016.0 |
| 20260504171551 | 74 | 310 | 2.0 | 7.0 | 0.00 | 0.00 | 0.00 | 33 | 1016.4 |
| 20260504100111 | 39 | 0 | 0.0 | 0.0 | 0.00 | 0.00 | 0.00 | 89 | 1017.2 |
| 20260504081604 | 41 | 0 | 0.0 | 0.0 | 0.00 | 0.00 | 0.00 | 87 | 1017.1 |
| 20260504060103 | 45 | 0 | 0.0 | 0.0 | 0.00 | 0.00 | 0.00 | 82 | 1017.4 |
| 20260504044549 | 46 | 0 | 0.0 | 2.0 | 0.00 | 0.00 | 0.00 | 80 | 1017.4 |
| 20260504043055 | 47 | 0 | 0.0 | 2.0 | 0.00 | 0.00 | 0.00 | 78 | 1017.6 |
| 20260504041545 | 47 | 0 | 0.0 | 0.0 | 0.00 | 0.00 | 0.00 | 78 | 1017.2 |
| 20260504034555 | 48 | 0 | 0.0 | 0.0 | 0.00 | 0.00 | 0.00 | 76 | 1017.3 |
| 20260504033057 | 49 | 0 | 0.0 | 4.0 | 0.00 | 0.00 | 0.00 | 75 | 1017.3 |
| 20260504031552 | 49 | 0 | 0.0 | 2.0 | 0.00 | 0.00 | 0.00 | 73 | 1017.5 |
| 20260504030055 | 50 | 348 | 0.0 | 1.0 | 0.00 | 0.00 | 0.00 | 72 | 1017.5 |
| 20260504024554 | 51 | 0 | 0.0 | 4.0 | 0.00 | 0.00 | 0.00 | 70 | 1017.5 |
| 20260504023049 | 51 | 0 | 0.0 | 3.0 | 0.00 | 0.00 | 0.00 | 69 | 1017.3 |
| 20260504021557 | 51 | 227 | 0.0 | 4.0 | 0.00 | 0.00 | 0.00 | 70 | 1017.2 |
| 20260504020104 | 51 | 154 | 0.0 | 2.0 | 0.00 | 0.00 | 0.00 | 69 | 1017.0 |
| 20260504014557 | 52 | 154 | 0.0 | 2.0 | 0.00 | 0.00 | 0.00 | 68 | 1016.6 |
| 20260504013053 | 53 | 0 | 0.0 | 1.0 | 0.00 | 0.00 | 0.00 | 66 | 1016.3 |
| 20260504011554 | 54 | 0 | 0.0 | 0.0 | 0.00 | 0.00 | 0.00 | 65 | 1016.4 |
| 20260504010051 | 55 | 0 | 0.0 | 1.0 | 0.00 | 0.00 | 0.00 | 61 | 1016.3 |
| 20260504004551 | 57 | 0 | 0.0 | 1.0 | 0.00 | 0.00 | 0.00 | 58 | 1016.1 |
| 20260504003051 | 59 | 0 | 0.0 | 1.0 | 0.00 | 0.00 | 0.00 | 55 | 1016.1 |
| 20260504001553 | 60 | 156 | 0.0 | 2.0 | 0.00 | 0.00 | 0.00 | 51 | 1016.0 |
| 20260504000052 | 62 | 0 | 0.0 | 1.0 | 0.00 | 0.00 | 0.00 | 47 | 1015.9 |
| 20260503234552 | 62 | 156 | 0.0 | 6.0 | 0.00 | 0.00 | 0.00 | 45 | 1015.7 |
| 20260503233048 | 63 | 198 | 0.0 | 4.0 | 0.00 | 0.00 | 0.00 | 42 | 1015.7 |